[[{"header":{"parameterUnit":"m.s-1","parameterCategory":1,"la1":30.2991,"la2":30.254,"lo1":-89.0895,"lo2":-89.0444,"dy":0.0017,"dx":0.0017,"nx":28,"ny":28,"refTime":"2023-10-27T09:00:00:Z","depth":0,"parameterNumber":2,"parameterNumberName":"U-component_of_WINDS"},"data":[0,0,0,0,0,0,0,0,0,0,0,0,0,0,0,0,0,0,0,0,0,0,0,0,0,0,0,0,0,0,0,0,0,0,0,0,0,0,0,0,0,0,0,0,0,0,0,0,0,0,0,0,0,0,0,0,0,0,-3.2307,-3.2307,0,-3.2354,-3.2354,-3.2355,-3.2274,-3.2271,-3.2268,-3.2266,-3.2314,-3.2318,-3.2322,0,0,0,0,0,0,0,0,0,0,0,0,0,-3.2148,-3.2151,-3.2307,-3.2307,-3.2308,-3.2354,-3.2354,-3.2355,-3.2274,-3.2271,-3.2268,-3.2265,-3.2313,-3.2317,-3.2322,0,0,0,0,0,0,0,0,0,0,0,0,0,-3.2208,-3.2152,-3.2307,-3.2273,-3.2271,-3.2353,-3.2354,-3.2355,-3.2275,-3.2271,-3.2267,-3.2263,-3.2311,-3.2317,-3.2323,-3.244,0,0,-3.234,-3.2343,0,0,0,0,0,0,0,0,-3.2205,-3.2214,-3.2278,-3.2276,-3.2273,-3.2304,-3.2316,-3.2384,-3.2276,-3.2274,-3.2266,-3.2261,-3.2314,-3.2319,-3.2337,-3.2442,-3.2444,-3.2341,-3.2344,-3.2347,-3.2348,0,0,0,0,0,0,0,-3.2201,-3.2211,-3.2325,-3.2279,-3.2276,-3.2256,-3.226,-3.2328,-3.2316,-3.2273,-3.2268,-3.2274,-3.2312,-3.2332,-3.2338,-3.2445,-3.234,-3.2346,-3.2349,-3.2351,-3.2648,-3.2653,0,0,0,0,0,0,-3.2201,-3.2209,-3.2324,-3.2327,-3.2228,-3.2262,-3.2267,-3.2298,-3.2315,-3.2314,-3.2278,-3.227,-3.2324,-3.2331,-3.2339,-3.2477,-3.2347,-3.2352,-3.2355,-3.2644,-3.2649,-3.2654,0,0,0,0,0,0,-3.2197,-3.2212,-3.2322,-3.2266,-3.2279,-3.2269,-3.2305,-3.2301,-3.2321,-3.2318,-3.2316,-3.23,-3.2321,-3.2331,-3.2415,-3.2477,-3.2354,-3.236,-3.2639,-3.2646,-3.2652,-3.2754,0,0,0,0,0,0,-3.2193,-3.2211,-3.2255,-3.2268,-3.2282,-3.2398,-3.2309,-3.2305,-3.2331,-3.2322,-3.2339,-3.2338,-3.2318,-3.2407,-3.2421,-3.2483,-3.2364,-3.2633,-3.2642,-3.265,-3.2745,-3.2763,-3.2779,0,0,0,0,0,-3.2188,-3.2283,-3.2258,-3.2272,-3.2337,-3.2401,-3.241,-3.2385,-3.2336,-3.2381,-3.2379,-3.2337,-3.2469,-3.2417,-3.2431,-3.2496,-3.2629,-3.2639,-3.2649,-3.2737,-3.276,-3.2778,0,0,0,0,0,0,-3.2278,-3.2283,-3.2256,-3.2358,-3.238,-3.2388,-3.2443,-3.241,-3.2446,-3.2436,-3.2405,-3.241,-3.25,-3.2507,-3.2449,-3.261,-3.2541,-3.2554,-3.2602,-3.2624,-3.264,-3.2636,-3.2369,0,0,0,0,0,-3.231,-3.2361,-3.2363,-3.2453,-3.2465,-3.2453,-3.248,-3.2459,-3.2481,-3.2489,-3.2494,-3.2517,-3.2563,-3.2594,-3.2636,-3.2746,-3.2748,-3.2798,-3.2815,-3.2829,-3.284,-3.2898,-3.292,-3.2687,-3.2687,-3.2687,0,0,-3.2375,-3.2385,-3.2419,-3.2471,-3.2485,-3.2539,-3.2461,-3.2521,-3.2561,-3.2499,-3.2578,-3.2583,-3.2606,-3.2703,-3.2746,-3.2711,-3.2905,-3.2841,-3.2853,-3.2856,-3.291,-3.2932,-3.2952,-3.2694,-3.2693,-3.2691,0,0,-3.2522,-3.2535,-3.2611,-3.2627,-3.265,-3.2641,-3.2659,-3.2673,-3.2673,-3.2753,-3.2707,-3.2754,-3.2834,-3.2852,-3.2872,-3.3027,-3.2989,-3.3042,-3.313,-3.3186,-3.3205,-3.3221,-3.3275,-3.3295,-3.3054,-3.3054,-3.3054,0,-3.2601,-3.268,-3.2654,-3.2717,-3.2741,-3.2687,-3.2763,-3.2781,-3.2817,-3.2834,-3.2795,-3.2894,-3.2906,-3.3007,-3.3044,-3.3063,-3.3082,-3.3039,-3.3204,-3.322,-3.3235,-3.3286,-3.3306,-3.306,-3.3059,-3.3059,-3.3058,0,-3.2776,-3.2831,-3.289,-3.2925,-3.2956,-3.3026,-3.3009,-3.3044,-3.3021,-3.3016,-3.3098,-3.3111,-3.3154,-3.3177,-3.3156,-3.3275,-3.3252,-3.3209,-3.3138,-3.3263,-3.3311,-3.333,-3.3069,-3.3067,-3.3065,-3.3063,0,0,-3.2979,-3.3,-3.3021,-3.3037,-3.3058,-3.3101,-3.3169,-3.3211,-3.3241,-3.3268,-3.3323,-3.3393,-3.3353,-3.3376,-3.3356,-3.3406,-3.3527,-3.3357,-3.3357,-3.3387,-3.3657,-3.3688,-3.3712,-3.3502,-3.3506,-3.3509,-3.3655,0,-3.3124,-3.324,-3.3218,-3.333,-3.3381,-3.3332,-3.339,-3.341,-3.3408,-3.3451,-3.3448,-3.3498,-3.3442,-3.3455,-3.3503,-3.3502,-3.358,-3.3491,-3.3553,-3.3555,-3.3547,-3.3737,-3.377,-3.3907,-3.3674,-3.3677,-3.3679,0,-3.3309,-3.3342,-3.346,-3.3473,-3.3494,-3.3547,-3.3584,-3.3626,-3.3647,-3.3642,-3.3668,-3.3639,-3.3706,-3.3635,-3.3727,-3.3667,-3.3691,-3.3694,-3.3699,-3.3703,-3.3624,-3.3744,-3.395,-3.397,-3.3708,-3.3706,-3.3704,0,-3.3444,-3.3519,-3.3598,-3.3613,-3.3631,-3.367,-3.3679,-3.3696,-3.3724,-3.3756,-3.3774,-3.3814,-3.3836,-3.3868,-3.3851,-3.3801,-3.3945,-3.3873,-3.3942,-3.3943,-3.3973,-3.3971,-3.4185,-3.3992,-3.3992,-3.3991,-3.3991,0,-3.3607,-3.3681,-3.3659,-3.3708,-3.3789,-3.3764,-3.3845,-3.3848,-3.3864,-3.3913,-3.3873,-3.392,-3.3895,-3.394,-3.3927,-3.4004,-3.4015,-3.4012,-3.4007,-3.4015,-3.4015,-3.4029,-3.4018,-3.3997,-3.3995,-3.3994,-3.3993,0,-3.3771,-3.376,-3.3843,-3.3853,-3.3858,-3.3917,-3.3926,-3.3972,-3.3967,-3.4029,-3.4042,-3.4035,-3.4085,-3.4072,-3.4127,-3.4118,-3.4215,-3.42,-3.4208,-3.4204,-3.4273,-3.4266,-3.4501,-3.453,-3.432,-3.4322,-3.4324,0,-3.3875,-3.393,-3.3947,-3.3976,-3.3989,-3.4037,-3.4065,-3.4042,-3.4072,-3.4101,-3.4144,-3.4191,-3.4227,-3.4311,-3.431,-3.4352,-3.4336,-3.4416,-3.4342,-3.4347,-3.4336,-3.4332,-3.4337,-3.443,-3.4432,-3.4434,-3.4436,0,-3.4061,-3.4052,-3.4093,-3.4133,-3.4166,-3.4196,-3.4222,-3.4249,-3.4229,-3.4265,-3.4316,-3.4344,-3.4401,-3.4448,-3.4487,-3.4496,-3.4463,-3.4459,-3.4477,-3.4484,-3.4486,-3.4485,-3.4246,-3.4454,-3.4452,-3.445,-3.445,-3.4449,-3.4197,-3.4243,-3.4262,-3.4309,-3.4327,-3.4352,-3.4395,-3.4396,-3.4438,-3.4482,-3.4467,-3.4525,-3.4546,-3.4594,-3.4609,-3.4654,-3.4624,-3.465,-3.4656,-3.4663,-3.4671,-3.4481,-3.4661,-3.4661,-3.466,-3.466,-3.4659,0,-3.4379,-3.4389,-3.4432,-3.447,-3.4507,-3.4473,-3.4501,-3.4534,-3.4586,-3.4607,-3.4644,-3.4703,-3.4749,-3.4752,-3.4795,-3.4831,-3.4817,-3.4843,-3.4839,-3.4842,-3.4696,-3.4676,-3.4854,-3.4854,-3.4854,-3.4854,-3.4853,-3.4853,-3.4478,-3.4555,-3.4549,-3.4634,-3.4644,-3.47,-3.4719,-3.4742,-3.4759,-3.4827,-3.4865,-3.4867,-3.4881,-3.4925,-3.4965,-3.4965,-3.4982,-3.5014,-3.5008,-3.4872,-3.4852,-3.4834,-3.4814,-3.5018,-3.5019,-3.515,-3.5151,-3.5152]},{"header":{"parameterUnit":"m.s-1","parameterCategory":1,"la1":30.2991,"la2":30.254,"lo1":-89.0895,"lo2":-89.0444,"dy":0.0017,"dx":0.0017,"nx":28,"ny":28,"refTime":"2023-10-27T09:00:00:Z","depth":0,"parameterNumber":3,"parameterNumberName":"V-component_of_WINDS"},"data":[0,0,0,0,0,0,0,0,0,0,0,0,0,0,0,0,0,0,0,0,0,0,0,0,0,0,0,0,0,0,0,0,0,0,0,0,0,0,0,0,0,0,0,0,0,0,0,0,0,0,0,0,0,0,0,0,0,0,1.5683,1.5682,0,1.5652,1.5652,1.5652,1.559,1.5589,1.5587,1.5586,1.5556,1.5556,1.5557,0,0,0,0,0,0,0,0,0,0,0,0,0,1.5689,1.5689,1.5683,1.5682,1.5682,1.5652,1.5652,1.5652,1.559,1.5589,1.5587,1.5586,1.5556,1.5556,1.5557,0,0,0,0,0,0,0,0,0,0,0,0,0,1.5675,1.5689,1.5683,1.5648,1.5644,1.5652,1.5652,1.5651,1.559,1.5589,1.5587,1.5585,1.5556,1.5556,1.5557,1.5597,0,0,1.5558,1.5559,0,0,0,0,0,0,0,0,1.5676,1.5675,1.5653,1.565,1.5646,1.5623,1.5643,1.5633,1.5591,1.5611,1.5586,1.5584,1.558,1.5578,1.5577,1.5595,1.5594,1.5558,1.5559,1.5559,1.5559,0,0,0,0,0,0,0,1.5677,1.5676,1.5671,1.5653,1.5649,1.5634,1.563,1.5641,1.5606,1.5609,1.5604,1.5602,1.5578,1.5576,1.5575,1.5594,1.5558,1.5559,1.5559,1.5559,1.5644,1.5646,0,0,0,0,0,0,1.5683,1.5677,1.5672,1.567,1.5657,1.5635,1.5631,1.5632,1.5606,1.56,1.5603,1.5599,1.5576,1.5575,1.5574,1.5619,1.5559,1.5559,1.556,1.5643,1.5645,1.5647,0,0,0,0,0,0,1.5683,1.5683,1.5673,1.5672,1.567,1.5637,1.5639,1.5633,1.5631,1.5601,1.5595,1.5608,1.5575,1.5573,1.5592,1.5617,1.556,1.556,1.564,1.5643,1.5646,1.571,0,0,0,0,0,0,1.5684,1.5684,1.5698,1.5673,1.567,1.5691,1.5641,1.5633,1.5632,1.5626,1.5604,1.5599,1.5573,1.5591,1.5592,1.5617,1.556,1.5638,1.5642,1.5645,1.5705,1.5714,1.5722,0,0,0,0,0,1.5684,1.5717,1.5699,1.5699,1.5687,1.5692,1.569,1.566,1.5635,1.5649,1.563,1.56,1.5615,1.5594,1.5594,1.5619,1.5636,1.564,1.5645,1.5701,1.5713,1.5722,0,0,0,0,0,0,1.5746,1.5713,1.5693,1.5718,1.5709,1.5682,1.5699,1.5673,1.567,1.5664,1.5627,1.5623,1.5646,1.5635,1.5612,1.5657,1.5621,1.5625,1.5663,1.5674,1.5682,1.5684,1.5561,0,0,0,0,0,1.5762,1.5769,1.574,1.5765,1.5762,1.5731,1.5732,1.571,1.5698,1.5694,1.5676,1.5666,1.5668,1.5671,1.5671,1.5704,1.5698,1.5722,1.573,1.5738,1.5742,1.5758,1.5768,1.5661,1.5661,1.5661,0,0,1.5796,1.5779,1.5786,1.5777,1.5767,1.5775,1.5728,1.5738,1.5743,1.5695,1.5711,1.5698,1.5685,1.571,1.5721,1.5702,1.577,1.5743,1.5749,1.5749,1.5764,1.5774,1.5783,1.5664,1.5664,1.5663,0,0,1.5862,1.585,1.587,1.5861,1.5846,1.5826,1.5831,1.5809,1.5798,1.5814,1.5778,1.5784,1.5789,1.5781,1.5778,1.5843,1.5815,1.5844,1.5889,1.5905,1.5914,1.5921,1.5943,1.5952,1.5849,1.5849,1.5849,0,1.5906,1.5916,1.5884,1.5896,1.5893,1.5851,1.5871,1.5864,1.585,1.585,1.5829,1.5835,1.5823,1.5846,1.5862,1.5861,1.5866,1.5846,1.5915,1.5922,1.5928,1.5949,1.5958,1.5853,1.5852,1.5852,1.5851,0,1.5971,1.5978,1.5996,1.5984,1.5984,1.6,1.5971,1.5975,1.5953,1.5936,1.5953,1.5937,1.5934,1.5939,1.5917,1.5959,1.5948,1.5922,1.5884,1.5942,1.5962,1.597,1.5858,1.5856,1.5855,1.5854,0,0,1.6072,1.6043,1.605,1.6044,1.6026,1.6031,1.6046,1.6043,1.6047,1.604,1.6051,1.6058,1.6034,1.603,1.6008,1.6023,1.6075,1.5995,1.5994,1.6009,1.612,1.6139,1.6148,1.6057,1.6059,1.606,1.6121,0,1.6132,1.6155,1.6128,1.6157,1.6163,1.6124,1.6137,1.6128,1.6113,1.6117,1.61,1.6105,1.6073,1.607,1.6084,1.6066,1.6096,1.6061,1.6067,1.6068,1.607,1.6159,1.6178,1.6236,1.6128,1.6129,1.613,0,1.6205,1.6202,1.6231,1.6212,1.6214,1.6226,1.6221,1.6226,1.6215,1.6202,1.62,1.6173,1.6187,1.6152,1.6171,1.6148,1.6149,1.6141,1.6143,1.6141,1.6101,1.6158,1.6254,1.6262,1.6142,1.6141,1.614,0,1.6275,1.6278,1.6296,1.6292,1.627,1.628,1.6271,1.6258,1.6259,1.6255,1.6255,1.6254,1.6253,1.6253,1.6227,1.6204,1.6249,1.6212,1.6239,1.624,1.6249,1.6248,1.6345,1.6252,1.6252,1.6252,1.6252,0,1.6344,1.6364,1.6327,1.6338,1.6359,1.6328,1.635,1.6338,1.6327,1.6335,1.6302,1.6311,1.6277,1.6283,1.6263,1.6282,1.6282,1.6273,1.6267,1.6275,1.6276,1.6274,1.6268,1.6254,1.6254,1.6253,1.6253,0,1.6425,1.6401,1.6418,1.6396,1.6391,1.6408,1.6389,1.6399,1.6383,1.6394,1.6395,1.6369,1.6373,1.6349,1.6349,1.6336,1.6364,1.6352,1.6367,1.6363,1.6392,1.6389,1.6489,1.6501,1.6402,1.6403,1.6404,0,1.647,1.6484,1.6464,1.6467,1.646,1.6466,1.6466,1.6437,1.6439,1.6428,1.644,1.6442,1.6442,1.6451,1.6433,1.6433,1.642,1.6456,1.642,1.6428,1.642,1.6419,1.642,1.6462,1.6464,1.6465,1.6465,0,1.6552,1.654,1.6541,1.6539,1.6541,1.6538,1.6533,1.6538,1.6506,1.651,1.6515,1.6515,1.6516,1.6518,1.6515,1.6507,1.6481,1.6477,1.6483,1.6491,1.6499,1.6494,1.6386,1.6474,1.6474,1.6473,1.6472,1.6472,1.6615,1.6626,1.6614,1.6617,1.661,1.6607,1.6615,1.66,1.6603,1.6601,1.6584,1.6592,1.6582,1.6575,1.657,1.6576,1.6559,1.6568,1.657,1.6573,1.6577,1.6499,1.6575,1.6575,1.6575,1.6575,1.6574,0,1.6695,1.6685,1.6689,1.6683,1.6686,1.6662,1.6656,1.666,1.6667,1.666,1.6661,1.6667,1.6669,1.6652,1.6653,1.6661,1.6649,1.6662,1.666,1.6659,1.6593,1.6587,1.6671,1.6671,1.6671,1.6671,1.6671,1.6671,1.6736,1.6753,1.674,1.6754,1.6745,1.6752,1.6751,1.6747,1.6741,1.6749,1.6752,1.674,1.6729,1.6729,1.6731,1.6726,1.6727,1.6744,1.6735,1.6673,1.6663,1.6654,1.6648,1.6745,1.6745,1.68,1.68,1.6801]}]]